CW7229 Weather Reports


Display with metric or nautical units.
time (UTC)temp
F
wind
direction
speed
MPH
gust
MPH
rain 1hr
in
rain 24hr
in
rain mn
in
humidity
%
barometer
mb
20260505090113 61 312 0.0 6.0 0.00 0.50 0.11 53 1007.5
20260505083113 61 315 0.0 0.0 0.00 0.50 0.11 69 1007.5
20260505080112 60 168 0.0 0.0 0.01 0.50 0.11 77 1007.5
20260505073112 58 277 0.0 0.0 0.01 0.50 0.11 79 1007.5
20260505070112 58 196 0.0 0.0 0.01 0.49 0.10 79 1007.5
20260505063112 58 196 0.0 0.0 0.02 0.49 0.10 79 1007.5
20260505060131 58 196 0.0 0.0 0.03 0.49 0.10 79 1007.5
20260505053113 58 196 0.0 0.0 0.01 0.47 0.08 78 1007.5
20260505050133 58 196 0.0 0.0 0.01 0.46 0.07 77 1007.5
20260505040112 57 196 0.0 0.0 0.01 0.45 0.06 75 1007.6
20260505033112 57 196 0.0 0.0 0.01 0.45 0.06 74 1007.6
20260505030112 57 196 0.0 0.0 0.01 0.44 0.05 72 1008.6
20260505023112 57 196 0.0 0.0 0.01 0.44 0.05 71 1008.6
20260505020112 57 196 0.0 0.0 0.01 0.43 0.04 71 1008.6
20260505010112 58 196 0.0 0.0 0.01 0.42 0.03 70 1008.6
20260505000112 58 196 0.0 0.0 0.01 0.42 0.03 71 1009.6
20260504230112 58 189 0.0 0.0 0.01 0.40 0.01 71 1009.5
20260504220112 59 189 0.0 0.0 0.03 0.39 0.39 70 1010.5
20260504213112 60 252 0.0 0.0 0.04 0.38 0.38 71 1010.5
20260504210112 60 301 0.0 0.0 0.08 0.37 0.37 71 1010.5
20260504203112 61 302 0.0 0.0 0.08 0.34 0.34 70 1010.5
20260504200112 61 310 2.0 4.0 0.09 0.29 0.29 67 1010.5
20260504193112 61 325 3.0 5.0 0.21 0.27 0.27 64 1010.5
20260504190112 61 284 0.0 0.0 0.21 0.21 0.21 62 1010.5
20260504183112 63 242 4.0 6.0 0.05 0.05 0.05 47 1009.4
20260504180131 67 322 0.0 3.0 0.00 0.00 0.00 29 1009.4
20260504170130 70 25 1.0 6.0 0.00 0.00 0.00 24 1008.3
20260504150111 76 316 7.0 8.0 0.00 0.00 0.00 21 1009.2
20260504140111 74 231 0.0 4.0 0.00 0.00 0.00 21 1009.2
20260504130111 76 131 3.0 6.0 0.00 0.00 0.00 22 1009.2
20260504120111 73 313 5.0 8.0 0.00 0.00 0.00 22 1010.2
20260504100112 71 211 3.0 6.0 0.00 0.00 0.00 27 1010.3